Lander, WY

5:58 PM MDT on April 23, 2018 (GMT -0600)
Hunt

Weather History for KLND - April, 2012

Change the Weather History Date:

Sunday, April 8, 2012

  Actual Average Record
Temperature  
Mean Temperature 46 °F 42 °F  
Max Temperature 67 °F 54 °F 75 °F (1996)
Min Temperature 25 °F 29 °F -2 °F (1973)
Degree Days  
Heating Degree Days 19 23  
Month to date heating degree days 159 193  
Since 1 July heating degree days 6138 6812  
Cooling Degree Days 0 0  
Month to date cooling degree days 0 0  
Year to date cooling degree days 0 0  
Moisture  
Dew Point 12 °F    
Average Humidity 26    
Maximum Humidity 42    
Minimum Humidity 10    
Precipitation  
Precipitation 0.00 in 0.05 in 1.31 in (2013)
Month to date precipitation 0.42 0.41  
Year to date precipitation 2.09 2.56  
Snow  
Snow 0.00 in 0.60 in - ()
Month to date snowfall 1.1 4.7  
Since 1 July snowfall 60.3 74.4  
Snow Depth 0.00 in    
Sea Level Pressure  
Sea Level Pressure 30.18 in    
Wind  
Wind Speed 5 mph (WNW)    
Max Wind Speed 14 mph    
Max Gust Speed 17 mph    
Visibility 10 miles    
Events      
T = Trace of Precipitation, MM = Missing Value Source: NWS Daily Summary

Daily Weather History Graph

Daily Weather History Graph

Search for Another Location

Airport or City:

Astronomy

Apr. 08, 2012 Rise Set
Actual Time 6:44 AM MDT 7:49 PM MDT
Civil Twilight 6:15 AM MDT 8:18 PM MDT
Nautical Twilight 5:40 AM MDT 8:53 PM MDT
Astronomical Twilight 5:04 AM MDT 9:30 PM MDT
Moon 10:45 PM MDT (4/8) 7:38 AM MDT (4/8)
Length of Visible Light 14h 03m
Length of Day
13h 05m
Waning Gibbous, 94% of the Moon is Illuminated
Apr 8
Waning Gibbous
Apr 13
Last Quarter
Apr 21
New
Apr 29
First Quarter
May 5
Full

Hourly Weather History & Observations

Time (MDT) Temp. Windchill Dew Point Humidity Pressure Visibility Wind Dir Wind Speed Gust Speed Precip Events Conditions
12:53 AM 37.9 °F 30.5 °F 6.1 °F 27% 30.21 in 10.0 mi WSW 11.5 mph - N/A   Clear
1:53 AM 36.0 °F - 7.0 °F 30% 30.22 in 10.0 mi Calm Calm - N/A   Clear
2:53 AM 35.1 °F 32.2 °F 7.0 °F 31% 30.21 in 10.0 mi SW 3.5 mph - N/A   Clear
3:53 AM 34.0 °F 29.8 °F 7.0 °F 32% 30.20 in 10.0 mi NNW 4.6 mph - N/A   Clear
4:53 AM 30.0 °F 26.5 °F 9.0 °F 41% 30.22 in 10.0 mi NNW 3.5 mph - N/A   Clear
5:53 AM 34.0 °F 27.2 °F 7.0 °F 32% 30.21 in 10.0 mi WSW 8.1 mph - N/A   Clear
6:53 AM 28.9 °F 25.2 °F 9.0 °F 43% 30.25 in 10.0 mi South 3.5 mph - N/A   Clear
7:53 AM 33.1 °F - 10.9 °F 40% 30.27 in 10.0 mi Calm Calm - N/A   Clear
8:53 AM 37.0 °F - 15.1 °F 41% 30.27 in 10.0 mi Calm Calm - N/A   Clear
9:53 AM 42.1 °F - 9.0 °F 26% 30.26 in 10.0 mi Calm Calm - N/A   Clear
10:53 AM 48.0 °F - 12.0 °F 24% 30.24 in 10.0 mi Calm Calm - N/A   Clear
11:53 AM 52.0 °F - 10.0 °F 19% 30.22 in 10.0 mi Calm Calm - N/A   Clear
12:53 PM 54.0 °F - 12.0 °F 19% 30.19 in 10.0 mi ESE 5.8 mph - N/A   Clear
1:53 PM 60.1 °F - 15.1 °F 17% 30.14 in 10.0 mi East 3.5 mph - N/A   Clear
2:53 PM 63.0 °F - 15.1 °F 16% 30.11 in 10.0 mi East 8.1 mph - N/A   Clear
3:53 PM 64.0 °F - 12.0 °F 13% 30.08 in 10.0 mi Calm Calm - N/A   Clear
4:53 PM 66.9 °F - 10.9 °F 11% 30.06 in 10.0 mi North 11.5 mph - N/A   Clear
5:53 PM 66.0 °F - 9.0 °F 11% 30.05 in 10.0 mi Calm Calm - N/A   Clear
6:53 PM 62.1 °F - 10.9 °F 13% 30.08 in 10.0 mi North 13.8 mph 17.3 mph N/A   Clear
7:53 PM 52.0 °F - 19.9 °F 28% 30.15 in 10.0 mi WNW 8.1 mph - N/A   Clear
8:53 PM 48.9 °F - 19.0 °F 31% 30.18 in 10.0 mi NNW 6.9 mph - N/A   Clear
9:53 PM 45.0 °F 40.6 °F 19.9 °F 37% 30.19 in 10.0 mi WSW 8.1 mph - N/A   Clear
10:53 PM 43.0 °F 37.7 °F 18.0 °F 37% 30.18 in 10.0 mi West 9.2 mph - N/A   Clear
11:53 PM 42.1 °F 37.1 °F 17.1 °F 37% 30.19 in 10.0 mi WNW 8.1 mph - N/A   Clear